Location: Pittsburgh
(40.4410°N, 79.9960°W)
Time: 19:15:02
(UTC-04:00)

BlueWalker 3 - Pass Details

Date: 14 March 2026
Orbit: 449 x 457 km, 53.2° (Epoch: 12 April)

Event Time Altitude Azimuth Distance (km) Brightness Sun altitude
Exits shadow 06:30:15 - 318° (NW) 1,790 4.4 -12.8°
Reaches altitude 10° 06:30:44 10° 320° (NW) 1,601 4.2 -12.7°
Maximum altitude 06:34:13 45° 34° (NE) 635 2.8 -12.0°
Drops below altitude 10° 06:37:40 10° 108° (ESE) 1,591 5.6 -11.4°
Sets 06:39:51 0° 115° (ESE) 2,460 6.5 -11.0°
